Terminal Aerodrome Forecast
Issued by NWS

Home | Current Version | Previous Version | Text Only | Print | Product List | Glossary On
Versions: 1 2 3 4 5 6 7 8 9 10 11 12 13 14 15 16 17 18 19 20 21 22 23 24 25 26 27 28 29 30 31 32 33 34 35 36 37 38 39 40 41 42 43 44 45 46 47 48 49 50
000
FTUS44 KHGX 260716 AAB
TAFLBX
TAF AMD
KLBX 260716Z 2607/2706 02010KT 6SM -TSRA SCT007 BKN025CB OVC070
      TEMPO 2607/2609 VRB35KT 1SM +TSRA BKN007 BKN020CB
     FM260900 17010KT P6SM OVC020
     FM261500 18012KT P6SM SCT015 OVC020
     FM270100 15006KT 6SM BR OVC015=

USA.gov is the U.S. government's official web portal to all federal, state and local government web resources and services.